Regional Weather Roundup
Issued by NWS Grand Forks, ND

Home | Current Version | Previous Version | Text Only | Print | Product List | Glossary On
Versions: 1 2 3 4 5 6 7 8 9 10 11 12 13 14 15 16 17 18 19 20 21 22 23 24 25 26 27 28 29 30 31 32 33 34 35 36 37 38 39 40 41 42 43 44 45 46 47 48 49 50
000
ASUS43 KFGF 030631
RWRFGF
PRAIRIE TO PINES  WEATHER ROUNDUP
NATIONAL WEATHER SERVICE EASTERN NORTH DAKOTA/GRAND FORKS ND
100 AM CDT WED SEP 03 2014

 **SATELLITE DATA USED TO AUGMENT SKY COVER AT AUTOMATED STATIONS**
 *****  WEATHER ACROSS EASTERN NORTH DAKOTA  *****

CITY           SKY/WX    TMP DP  RH WIND       PRES   REMARKS
GRAND FORKS    FAIR      57  52  83 W5        29.73R
6HR MIN TEMP:  57; 6HR MAX TEMP:  75;

GRAND FRKS AFB FAIR      55  54  95 W3        29.74R
GRAND FRKS NWS   N/A     55 N/A N/A MISG        N/A
DEVILS LAKE    FAIR      55  48  76 CALM      29.74S
6HR MIN TEMP:  55; 6HR MAX TEMP:  73;

FARGO          FAIR      63  54  72 S7        29.74F
WAHPETON ARPT  FAIR      57  52  82 CALM      29.79R
$$

 ***** WEATHER ACROSS CENTRAL AND WESTERN NORTH DAKOTA  *****

CITY           SKY/WX    TMP DP  RH WIND       PRES   REMARKS
BISMARCK       CLEAR     54  51  90 CALM      29.77S
6HR MIN TEMP:  52; 6HR MAX TEMP:  76;

MINOT          FAIR      53  49  86 S3        29.74F
6HR MIN TEMP:  53; 6HR MAX TEMP:  72;

JAMESTOWN      FAIR      54  51  90 CALM      29.76S
6HR MIN TEMP:  54; 6HR MAX TEMP:  73;

MINOT AFB      FAIR      50  49  97 SW3       29.73F
GARRISON         N/A     56  51  84 CALM      29.75S
WILLISTON      CLEAR     52  46  80 CALM      29.72F
6HR MIN TEMP:  50; 6HR MAX TEMP:  76;

DICKINSON      PTCLDY    51  44  77 SE3       29.75F
6HR MIN TEMP:  48; 6HR MAX TEMP:  69;

HETTINGER      CLEAR     52  44  74 CALM      29.77F
6HR MIN TEMP:  50; 6HR MAX TEMP:  73;

$$

 *****  OTHER AIRPORT OBSERVATIONS IN OUR AREA  *****

CITY           SKY/WX    TMP DP  RH WIND       PRES   REMARKS
WALHALLA       FAIR      52  52 100 CALM      29.74S
GRAFTON AIRPOR FAIR      54  54 100 CALM      29.73S
VALLEY CITY AR FAIR      57  54  88 NW3       29.76S
CANDO          FAIR      50  48  93 CALM      29.76S
CAVALIER APRT  FAIR      54  52  94 CALM      29.74R
GWINNER        CLEAR     61  57  88 W8        29.78S
SHEYENNE NWR     N/A     56  53  89 CALM      29.95
ROLLA          FAIR      46  46 100 CALM      29.76F
 ***** THE ABOVE OBSERVATIONS ARE NON NWS ARE NOT QUALITY
       CONTROLLED AND MAY MIS-REPORT RAIN FOR SNOW...
$$

  *****  WEATHER ACROSS NORTHERN MINNESOTA  *****

CITY           SKY/WX    TMP DP  RH WIND       PRES   REMARKS
FLAG ISLAND    FAIR      55  54  94 NW8       29.73S
WARROAD        FAIR      54  48  82 CALM      29.75S
ROSEAU         FAIR      52  48  87 CALM      29.75R FOG
HALLOCK        FAIR      52  50  93 CALM      29.73S
THF RVR FALLS  FAIR      55  52  88 CALM      29.74S
6HR MIN TEMP:  54; 6HR MAX TEMP:  73;

BAUDETTE       FAIR      53  51  93 CALM      29.74S
6HR MIN TEMP:  53; 6HR MAX TEMP:  65; 6HR PCP:  0.13;

WASKISH        FAIR      54  52  94 CALM      29.75S
CROOKSTON      FAIR      57  52  82 CALM      29.74S
$$
  *****  WEATHER ACROSS CENTRAL AND WEST MINNESOTA  *****

CITY           SKY/WX    TMP DP  RH WIND       PRES   REMARKS
FOSSTON        MOCLDY    55  54  94 S5        29.77S
BEMIDJI        FAIR      58  55  87 SW3       29.77S
PARK RAPIDS    FAIR      61  56  83 SW3       29.80R
6HR MIN TEMP:  60; 6HR MAX TEMP:  72;

ELBOW LAKE     MOCLDY    61  56  83 S10       29.79S
6HR MIN TEMP:  59; 6HR MAX TEMP:  73;

WADENA         FAIR      59  54  82 SW6       29.80S
DETROIT LAKES  FAIR      63  55  77 SW6       29.80F
MOORHEAD       FAIR      66  59  77 S6        29.76S
FERGUS FALLS   MOCLDY    63  54  72 S8        29.78S
MORRIS MN      FAIR      59  55  88 S7        29.80S
STAPLES        FAIR      61  54  77 S8        29.81S
$$
  *****  WEATHER ELSEWHERE ACROSS MINNESOTA  *****

CITY           SKY/WX    TMP DP  RH WIND       PRES   REMARKS
DULUTH         MOCLDY    62  53  72 N10       29.82S
6HR MIN TEMP:  57; 6HR MAX TEMP:  63; 6HR PCP: TRACE;

INTRNTL FALLS  FAIR      53  52  96 SW5       29.74S
6HR MIN TEMP:  52; 6HR MAX TEMP:  65; 6HR PCP:  0.39;

ELY            FAIR      54  52  94 SW6       29.80F
CLOQUET        FAIR      59  54  82 SW6       29.82S
WHEATON        FAIR      59  54  82 S8        29.79S
BRAINERD       FAIR      59  54  83 S8        29.82R
6HR MIN TEMP:  59; 6HR MAX TEMP:  71;

HIBBING        FAIR      56  53  90 S5        29.82F
6HR MIN TEMP:  55; 6HR MAX TEMP:  63; 6HR PCP:  0.06;

ALEXANDRIA     MOCLDY    65  55  70 S12       29.83S
6HR MIN TEMP:  65; 6HR MAX TEMP:  72;

SAINT CLOUD    FAIR      62  56  80 S5        29.85R
6HR MIN TEMP:  62; 6HR MAX TEMP:  75;

MINNEAPOLIS    FAIR      65  58  78 S3        29.88S
6HR MIN TEMP:  65; 6HR MAX TEMP:  76;

$$

  *****  WEATHER ACROSS SOUTH DAKOTA  *****

CITY           SKY/WX    TMP DP  RH WIND       PRES   REMARKS
SIOUX FALLS    MOCLDY    68  57  68 S13       29.86F
6HR MIN TEMP:  66; 6HR MAX TEMP:  73;

BROOKINGS      NOT AVBL
WATERTOWN      FAIR      59  56  89 SE6       29.82F
6HR MIN TEMP:  59; 6HR MAX TEMP:  72;

HURON          MOCLDY    66  59  78 S10       29.79S
6HR MIN TEMP:  65; 6HR MAX TEMP:  75;

SISSETON         N/A     68  58  70 SW17G28   29.76F
ABERDEEN       CLEAR     61  58  90 S9        29.76F
6HR MIN TEMP:  60; 6HR MAX TEMP:  71;

MITCHELL       PTCLDY    67  59  75 S14       29.80F
PIERRE         CLEAR     64  57  78 SE7       29.72F
6HR MIN TEMP:  63; 6HR MAX TEMP:  82;

MOBRIDGE       CLEAR     63  53  70 E14       29.72F
RAPID CITY     CLEAR     59  46  62 W3        29.76F
6HR MIN TEMP:  54; 6HR MAX TEMP:  78;

$$

  *****  SOME WEATHER IN NEARBY STATES *****

CITY           SKY/WX    TMP DP  RH WIND       PRES   REMARKS
GLASGOW MT     MOCLDY    57  45  64 E10       29.68F
6HR MIN TEMP:  56; 6HR MAX TEMP:  74;

GREAT FALLS MT PTCLDY    59  39  47 E6        29.68F
6HR MIN TEMP:  58; 6HR MAX TEMP:  77;

CHEYENNE WY    CLEAR     60  41  49 W7        30.00F
6HR MIN TEMP:  59; 6HR MAX TEMP:  79;

SCOTTSBLUFF NE CLEAR     63  54  72 E8        29.83F
6HR MIN TEMP:  61; 6HR MAX TEMP:  85;

OMAHA NE       FAIR      67  57  70 SE5       29.92F
6HR MIN TEMP:  67; 6HR MAX TEMP:  78;

DES MOINES IA  FAIR      66  60  81 CALM      29.95F
6HR MIN TEMP:  66; 6HR MAX TEMP:  78;

DAVENPORT IA   FAIR      60  58  92 CALM      30.00R
6HR MIN TEMP:  59; 6HR MAX TEMP:  73;

CHICAGO IL     FAIR      68  59  73 W3        29.98R
6HR MIN TEMP:  68; 6HR MAX TEMP:  77;

EAU CLAIRE WI  FAIR      60  58  92 S3        29.90R
6HR MIN TEMP:  58; 6HR MAX TEMP:  73;

LA CROSSE WI   FAIR      65  61  87 S5        29.93R
6HR MIN TEMP:  64; 6HR MAX TEMP:  77;

$$

  *****  SOME NATIONAL WEATHER *****

CITY           SKY/WX    TMP DP  RH WIND       PRES   REMARKS
LA GUARDIA NY  FAIR      79  67  66 NW18G25   29.83R
6HR MIN TEMP:  79; 6HR MAX TEMP:  89;

RALEIGH NC     MOCLDY    76  69  79 SW9       30.03R
6HR MIN TEMP:  75; 6HR MAX TEMP:  81;

ATLANTA GA     FAIR      73  69  87 SW7       30.05F
6HR MIN TEMP:  73; 6HR MAX TEMP:  82;

NEW ORLEANS LA MOCLDY    75  71  87 SE7       29.96F
6HR MIN TEMP:  75; 6HR MAX TEMP:  86; 6HR PCP:  0.08;

OKLAHOMA CITY  FAIR      79  66  64 SE14      29.92F
6HR MIN TEMP:  79; 6HR MAX TEMP:  90;

ALBUQUERQUE NM PTCLDY    74  40  29 SE7       30.04R
6HR MIN TEMP:  74; 6HR MAX TEMP:  94;

SALT LAKE CITY PTCLDY    70  41  34 SE10      29.79S
6HR MIN TEMP:  70; 6HR MAX TEMP:  87;

LOS ANGELES CA MOCLDY    69  63  81 W7        29.81S
6HR MIN TEMP:  68; 6HR MAX TEMP:  74;



USA.gov is the U.S. government's official web portal to all federal, state and local government web resources and services.